Regional Weather Roundup
Issued by NWS Sioux Falls, SD

Home | Current Version | Previous Version | Graphics & Text | Print | Product List | Glossary On
Versions: 1 2 3 4 5 6 7 8 9 10 11 12 13 14 15 16 17 18 19 20 21 22 23 24 25 26 27 28 29 30 31 32 33 34 35 36 37 38 39 40 41 42 43 44 45 46 47 48 49 50
000
ASUS43 KFSD 280010
RWRFSD

WEATHER ROUNDUP FOR SE SOUTH DAKOTA/SW MINNESOTA/NW IOWA
NATIONAL WEATHER SERVICE SIOUX FALLS SD
700 PM CDT SAT MAY 27 2017

NOTE: "FAIR" INDICATES FEW OR NO CLOUDS BELOW 12,000 FEET WITH NO
SIGNIFICANT WEATHER AND OR OBSTRUCTIONS TO VISIBILITY.


SDZ038>040-050-052>070-280100-
SOUTHEAST SOUTH DAKOTA

CITY           SKY/WX    TMP DP  RH WIND       PRES   REMARKS
BROOKINGS      CLOUDY    66  48  52 W9        29.89S
CHAMBERLAIN    SUNNY     72  48  42 SW10G18   29.90S
6HR MIN TEMP:  64; 6HR MAX TEMP:  74;

HURON          PTSUNNY   72  44  36 SW7       29.85F
6HR MIN TEMP:  65; 6HR MAX TEMP:  73; 6HR PCP: TRACE;

MADISON        FAIR      64  46  52 W10       29.91S
MITCHELL       MOSUNNY   70  47  43 SW8       29.90F
6HR MIN TEMP:  67; 6HR MAX TEMP:  71; 6HR PCP: TRACE;

SIOUX FALLS    CLOUDY    67  50  54 VRB5      29.90S
6HR MIN TEMP:  62; 6HR MAX TEMP:  69; 6HR PCP: TRACE;

WINNER         FAIR      72  47  40 W12       29.92F
YANKTON        CLOUDY    64  51  62 W7        29.93F
$$

MNZ071-072-080-081-089-090-097-098-280100-
SOUTHWEST MINNESOTA

CITY           SKY/WX    TMP DP  RH WIND       PRES   REMARKS
FAIRMONT       SUNNY     69  45  41 NW6       29.90S
JACKSON        CLOUDY    68  45  42 CALM      29.91S
LUVERNE        PTSUNNY   64  46  52 W8        29.91S
MARSHALL       CLOUDY    69  48  47 W13       29.87S
6HR MIN TEMP:  67; 6HR MAX TEMP:  73;

MONTEVIDEO     CLOUDY    72  43  35 W5        29.84S
PIPESTONE      MOSUNNY   66  43  42 NW7       29.89F
REDWOOD FALLS  MOSUNNY   71  40  32 SW9       29.85S
TRACY          PTSUNNY   69  47  44 W5        29.88S
WINDOM         PTSUNNY   68  45  42 SW5       29.89S
WORTHINGTON    CLOUDY    66  47  50 W9        29.90F
$$

IAZ001>003-012>014-020>022-031-032-NEZ013-014-SDZ071-280100-
NORTHWEST IOWA

CITY           SKY/WX    TMP DP  RH WIND       PRES   REMARKS
CHEROKEE       CLOUDY    67  52  58 NW6       29.91S
DENISON        SUNNY     68  50  52 E7        29.91S
ESTHERVILLE    CLOUDY    69  47  45 N5        29.89S
LE MARS        PTSUNNY   66  52  59 NW7       29.93S
ORANGE CITY    PTSUNNY   64  54  68 NW8       29.92S
SHELDON        MOSUNNY   68  46  45 W8        29.90S
SIOUX CITY     MOSUNNY   68  53  58 N14       29.91S
6HR MIN TEMP:  68; 6HR MAX TEMP:  74;

SPENCER        CLOUDY    69  49  48 CALM      29.90S
6HR MIN TEMP:  62; 6HR MAX TEMP:  71; 6HR PCP: TRACE;

STORM LAKE     CLOUDY    68  48  49 N9        29.91R
$$

ABBREVIATIONS USED IN REMARKS
   TC - TEMPERATURE IN CELSIUS
  WCI - WIND CHILL INDEX
   HX - HEAT INDEX
  VSB - VISIBILITY





USA.gov is the U.S. government's official web portal to all federal, state and local government web resources and services.